{"data":{"norad_id":54804,"intl_designator":"2022-175AY","name":"STARLINK-5422","alt_names":[],"object_type":"PAYLOAD","status":"ACTIVE","operator":null,"country":"US","launch_date":"2022-12-17","launch_site_code":"AFETR","launch_vehicle":null,"mission":null,"orbit_class":"UNKNOWN","rcs_meters":null,"size_class":null,"mass_kg":null,"dimensions":null,"purposes":["comms"],"wikipedia_slug":null,"has_3d_model":false,"image_url":null,"decayed_at":null,"tle_current":{"epoch":"2026-05-25T02:41:54.295872Z","epoch_age_seconds":72229,"freshness":"FRESH","line1":"1 54804U 22175AY  26145.11243398 -.00000137  00000+0  94987-5 0  9990","line2":"2 54804  53.2140  45.5633 0001305  87.6742 272.4400 15.08833557191675","mean_motion":15.08833557,"eccentricity":0.0001305,"inclination_deg":53.214,"raan_deg":45.5633,"arg_perigee_deg":87.6742,"mean_anomaly_deg":272.44,"bstar":9.4987e-6,"rev_number":19167,"period_min":95.43796221388,"perigee_km":538.86029674683,"apogee_km":540.66586866841,"semimajor_km":6917.9000827076,"source":"CELESTRAK","updated_at":"2026-05-25T13:38:17.697871Z"}}}